This demonstration page uses our WeatherBlox Daily Observations layout. Learn more.

Left ArrowRight Arrow

Hourly Observations for August 10, 2019

Temp ( °F °C ) Dew Point ( °F °C ) Humidity (%) Winds ( mph kmh ) Pressure ( in mb ) Visibility ( mi km ) Precip ( " mm )
12:56 am 00:56 Mostly Cloudy 77 25 70 21 79 79 SE 8 13 29.94 1014 10 16 0.00 0.00
1:56 am 01:56 Cloudy 75 24 68 20 78 78 E 7 11 29.93 1014 10 16 0.00 0.00
2:56 am 02:56 Cloudy 75 24 68 20 78 78 ESE 3 6 29.92 1013 10 16 0.00 0.00
3:56 am 03:56 Cloudy 75 24 70 21 83 83 S 9 15 29.87 1011 10 16 0.00 0.00
4:56 am 04:56 Mostly Cloudy 75 24 70 21 83 83 S 8 13 29.85 1011 10 16 0.00 0.00
5:56 am 05:56 Cloudy 75 24 70 21 83 83 SSE 8 13 29.86 1011 10 16 0.00 0.00
6:56 am 06:56 Cloudy 75 24 72 22 89 89 ESE 12 19 29.88 1012 10 16 0.00 0.00
7:56 am 07:56 Cloudy 77 25 72 22 83 83 SE 10 17 29.91 1013 10 16 0.00 0.00
8:56 am 08:56 Mostly Cloudy 77 25 72 22 83 83 SE 12 19 29.92 1013 10 16 0.00 0.00
9:56 am 09:56 Partly Cloudy 79 26 72 22 79 79 SE 13 20 29.91 1013 10 16 0.00 0.00
10:56 am 10:56 Mostly Cloudy 81 27 72 22 74 74 SSE 9 15 29.91 1013 10 16 0.00 0.00
11:56 am 11:56 Mostly Cloudy 84 29 72 22 66 66 S 8 13 29.91 1013 10 16 0.00 0.00
12:56 pm 12:56 Mostly Cloudy 86 30 72 22 62 62 SSE 6 9 29.89 1012 10 16 0.00 0.00
1:56 pm 13:56 Partly Cloudy 86 30 73 23 66 66 SE 9 15 29.87 1012 10 16 0.00 0.00
2:56 pm 14:56 Cloudy 86 30 73 23 66 66 SE 12 19 29.87 1012 10 16 0.00 0.00
3:56 pm 15:56 Cloudy 88 31 73 23 62 62 SSE 7 11 29.88 1012 10 16 0.00 0.00
4:56 pm 16:56 Cloudy 86 30 75 24 70 70 S 10 17 29.87 1012 10 16 0.00 0.00
5:56 pm 17:56 Mostly Cloudy 88 31 73 23 62 62 S 12 19 29.86 1011 10 16 0.00 0.00
6:56 pm 18:56 Mostly Cloudy 88 31 75 24 66 66 SSE 9 15 29.86 1011 10 16 0.00 0.00
7:56 pm 19:56 Mostly Cloudy 86 30 75 24 70 70 SSE 6 9 29.85 1011 10 16 0.00 0.00
8:56 pm 20:56 Partly Cloudy 84 29 75 24 74 74 S 6 9 29.87 1012 10 16 0.00 0.00
9:56 pm 21:56 Mostly Cloudy 84 29 75 24 74 74 S 6 9 29.89 1012 10 16 0.00 0.00
10:56 pm 22:56 Mostly Cloudy 82 28 75 24 79 79 SE 6 9 29.88 1012 10 16 0.00 0.00
11:56 pm 23:56 Mostly Cloudy 81 27 75 24 84 84 SSE 3 6 29.89 1012 10 16 0.00 0.00

Powered by AerisWeather